When you browse on this site, cookies collect data to enhance your experience and personalize the content and advertising you see.
Visit our Privacy Policy to learn more. By continuing to use the site, you agree to this use of cookies and data.
  • En España
  • Lista de países
  • Para 7 días
  • Temperatura del agua
  • El tiempo en el mapa
  • Informadores
  • user-avatar
    Iniciar sesión

    Tiempo cada hora Yeovil

    Hoy, 11 Noviembre, Lunes

    Tiempo Temperatura Precipitaciones Viento Presión Humedad
    00:00 +6°C° 0 mm 4 mps 748 mmHg 96%
    01:00 +7°C° 0.8 mm 6 mps 746 mmHg 94%
    02:00 +6°C° 0.8 mm 8 mps 745 mmHg 92%
    03:00 +6°C° 0.8 mm 9 mps 744 mmHg 90%
    04:00 +5°C° 0.2 mm 8 mps 744 mmHg 89%
    05:00 +4°C° 0.2 mm 7 mps 744 mmHg 87%
    06:00 +4°C° 0 mm 6 mps 744 mmHg 84%
    07:00 +4°C° 0 mm 6 mps 744 mmHg 84%
    08:00 +4°C° 0 mm 6 mps 745 mmHg 84%
    09:00 +4°C° 0 mm 6 mps 745 mmHg 83%
    10:00 +5°C° 0.1 mm 7 mps 746 mmHg 80%
    11:00 +6°C° 0.1 mm 8 mps 746 mmHg 76%
    12:00 +8°C° 0 mm 7 mps 746 mmHg 73%
    13:00 +6°C° 0.2 mm 7 mps 746 mmHg 75%
    14:00 +7°C° 0.2 mm 6 mps 745 mmHg 76%
    15:00 +7°C° 0.2 mm 6 mps 745 mmHg 78%
    16:00 +5°C° 0 mm 6 mps 745 mmHg 79%
    17:00 +4°C° 0 mm 6 mps 745 mmHg 81%
    18:00 +3°C° 0 mm 5 mps 745 mmHg 83%
    19:00 +3°C° 0 mm 5 mps 745 mmHg 83%
    20:00 +3°C° 0 mm 5 mps 745 mmHg 82%
    21:00 +3°C° 0 mm 5 mps 745 mmHg 82%
    22:00 +3°C° 0.1 mm 5 mps 745 mmHg 83%
    23:00 +3°C° 0.1 mm 5 mps 745 mmHg 83%

    Mañana, 12 Noviembre, Martes

    Tiempo Temperatura Precipitaciones Viento Presión Humedad
    00:00 +2°C° 0.1 mm 5 mps 745 mmHg 84%
    01:00 +2°C° 0.1 mm 5 mps 745 mmHg 83%
    02:00 +2°C° 0.1 mm 5 mps 745 mmHg 82%
    03:00 +2°C° 0.1 mm 5 mps 744 mmHg 82%
    04:00 +1°C° 0.1 mm 5 mps 744 mmHg 82%
    05:00 +1°C° 0.1 mm 5 mps 745 mmHg 82%
    06:00 +1°C° 0.1 mm 5 mps 745 mmHg 82%
    07:00 +1°C° 0 mm 5 mps 744 mmHg 81%
    08:00 +2°C° 0 mm 5 mps 744 mmHg 80%
    09:00 +2°C° 0 mm 6 mps 744 mmHg 78%
    10:00 +3°C° 0 mm 7 mps 744 mmHg 76%
    11:00 +4°C° 0 mm 8 mps 744 mmHg 73%
    12:00 +5°C° 0 mm 10 mps 743 mmHg 71%
    13:00 +5°C° 0 mm 9 mps 743 mmHg 73%
    14:00 +5°C° 0 mm 9 mps 743 mmHg 75%
    15:00 +5°C° 0 mm 8 mps 743 mmHg 77%
    16:00 +5°C° 0.3 mm 7 mps 743 mmHg 81%
    17:00 +5°C° 0.3 mm 7 mps 743 mmHg 84%
    18:00 +5°C° 0.3 mm 6 mps 744 mmHg 87%
    19:00 +6°C° 0 mm 5 mps 744 mmHg 87%
    20:00 +6°C° 0 mm 5 mps 744 mmHg 87%
    21:00 +5°C° 0 mm 5 mps 744 mmHg 87%
    22:00 +5°C° 0 mm 4 mps 744 mmHg 88%
    23:00 +4°C° 0 mm 4 mps 744 mmHg 89%

    Pasado mañana, 13 Noviembre, Miércoles

    Tiempo Temperatura Precipitaciones Viento Presión Humedad
    00:00 +3°C° 0 mm 3 mps 744 mmHg 90%
    01:00 +3°C° 0 mm 3 mps 744 mmHg 90%
    02:00 +3°C° 0 mm 3 mps 744 mmHg 90%
    03:00 +4°C° 0 mm 2 mps 744 mmHg 90%
    04:00 +4°C° 0 mm 2 mps 744 mmHg 91%
    05:00 +4°C° 0 mm 2 mps 744 mmHg 91%
    06:00 +4°C° 0 mm 2 mps 744 mmHg 92%
    07:00 +4°C° 0 mm 2 mps 744 mmHg 90%
    08:00 +5°C° 0 mm 2 mps 744 mmHg 89%
    09:00 +5°C° 0 mm 2 mps 744 mmHg 88%
    10:00 +5°C° 0 mm 3 mps 743 mmHg 82%
    11:00 +6°C° 0 mm 4 mps 743 mmHg 77%
    12:00 +7°C° 0 mm 4 mps 742 mmHg 72%
    13:00 +7°C° 0 mm 4 mps 741 mmHg 73%
    14:00 +6°C° 0 mm 5 mps 740 mmHg 75%
    15:00 +6°C° 0 mm 5 mps 738 mmHg 77%
    16:00 +6°C° 1 mm 5 mps 737 mmHg 82%
    17:00 +5°C° 1 mm 5 mps 736 mmHg 86%
    18:00 +3°C° 1 mm 5 mps 735 mmHg 91%
    19:00 +4°C° 0.8 mm 4 mps 735 mmHg 90%
    20:00 +3°C° 0.8 mm 3 mps 734 mmHg 90%
    21:00 +3°C° 0.8 mm 3 mps 734 mmHg 89%
    22:00 +2°C° 0 mm 3 mps 734 mmHg 89%
    23:00 +3°C° 0 mm 2 mps 734 mmHg 89%

    14 Noviembre, Jueves

    Tiempo Temperatura Precipitaciones Viento Presión Humedad
    00:00 +3°C° 0 mm 2 mps 734 mmHg 89%
    01:00 +2°C° 0 mm 2 mps 734 mmHg 89%
    02:00 +3°C° 0 mm 1 mps 734 mmHg 88%
    03:00 +2°C° 0 mm 1 mps 734 mmHg 87%
    04:00 +2°C° 0 mm 1 mps 734 mmHg 87%
    05:00 +2°C° 0 mm 1 mps 735 mmHg 87%
    06:00 +1°C° 0 mm 0 mps 735 mmHg 87%
    07:00 +2°C° 0 mm 0 mps 736 mmHg 85%
    08:00 +2°C° 0 mm 0 mps 736 mmHg 84%
    09:00 +3°C° 0 mm 0 mps 737 mmHg 82%
    10:00 +4°C° 0 mm 0 mps 737 mmHg 80%
    11:00 +6°C° 0 mm 1 mps 738 mmHg 77%
    12:00 +7°C° 0 mm 1 mps 738 mmHg 74%
    13:00 +7°C° 0 mm 1 mps 738 mmHg 76%
    14:00 +7°C° 0 mm 1 mps 739 mmHg 79%
    15:00 +6°C° 0 mm 2 mps 739 mmHg 81%
    16:00 +5°C° 0 mm 2 mps 739 mmHg 84%
    17:00 +3°C° 0 mm 3 mps 740 mmHg 87%
    18:00 +2°C° 0 mm 3 mps 741 mmHg 91%
    19:00 +1°C° 0.2 mm 4 mps 741 mmHg 91%
    20:00 +1°C° 0.2 mm 4 mps 742 mmHg 90%
    21:00 +1°C° 0.2 mm 4 mps 743 mmHg 90%
    22:00 0°C° 0.1 mm 5 mps 744 mmHg 91%
    23:00 0°C° 0.1 mm 5 mps 744 mmHg 92%

    15 Noviembre, Viernes

    Tiempo Temperatura Precipitaciones Viento Presión Humedad
    00:00 0°C° 0.1 mm 5 mps 745 mmHg 92%
    01:00 0°C° 0 mm 5 mps 745 mmHg 93%
    02:00 0°C° 0 mm 4 mps 746 mmHg 94%
    03:00 -1°C° 0 mm 4 mps 746 mmHg 95%
    04:00 0°C° 0 mm 4 mps 746 mmHg 95%
    05:00 0°C° 0 mm 5 mps 747 mmHg 95%
    06:00 0°C° 0 mm 5 mps 747 mmHg 94%
    07:00 +1°C° 0 mm 5 mps 747 mmHg 93%
    08:00 +2°C° 0 mm 6 mps 747 mmHg 92%
    09:00 +2°C° 0 mm 7 mps 748 mmHg 91%
    10:00 +3°C° 0 mm 7 mps 748 mmHg 89%
    11:00 +4°C° 0 mm 7 mps 748 mmHg 87%
    12:00 +4°C° 0 mm 7 mps 748 mmHg 86%
    13:00 +4°C° 0 mm 7 mps 747 mmHg 85%
    14:00 +5°C° 0 mm 8 mps 747 mmHg 84%
    15:00 +5°C° 0 mm 8 mps 746 mmHg 83%
    16:00 +4°C° 0.1 mm 8 mps 746 mmHg 84%
    17:00 +4°C° 0.1 mm 8 mps 747 mmHg 85%
    18:00 +4°C° 0.1 mm 8 mps 747 mmHg 86%
    19:00 +4°C° 0.5 mm 8 mps 747 mmHg 87%
    20:00 +3°C° 0.5 mm 9 mps 747 mmHg 89%
    21:00 +3°C° 0.5 mm 9 mps 747 mmHg 90%
    22:00 +3°C° 0.1 mm 9 mps 747 mmHg 90%
    23:00 +4°C° 0.1 mm 8 mps 747 mmHg 91%

    16 Noviembre, Sábado

    Tiempo Temperatura Precipitaciones Viento Presión Humedad
    00:00 +4°C° 0.1 mm 8 mps 747 mmHg 91%
    01:00 +4°C° 0.1 mm 7 mps 747 mmHg 92%
    02:00 +3°C° 0.1 mm 7 mps 747 mmHg 92%
    03:00 +3°C° 0.1 mm 6 mps 747 mmHg 92%
    04:00 +3°C° 0.1 mm 6 mps 747 mmHg 93%
    05:00 +3°C° 0.1 mm 5 mps 747 mmHg 93%
    06:00 +4°C° 0.1 mm 4 mps 747 mmHg 93%
    07:00 +4°C° 0.1 mm 4 mps 747 mmHg 94%
    08:00 +4°C° 0.1 mm 3 mps 748 mmHg 94%
    09:00 +4°C° 0.1 mm 3 mps 748 mmHg 94%
    10:00 +5°C° 0.1 mm 2 mps 748 mmHg 93%
    11:00 +6°C° 0.1 mm 2 mps 748 mmHg 93%
    12:00 +7°C° 0.1 mm 1 mps 748 mmHg 92%
    13:00 +7°C° 0.1 mm 1 mps 748 mmHg 93%
    14:00 +7°C° 0.1 mm 1 mps 748 mmHg 93%
    15:00 +7°C° 0.1 mm 1 mps 747 mmHg 93%
    16:00 +7°C° 0 mm 1 mps 748 mmHg 94%
    17:00 +6°C° 0 mm 0 mps 748 mmHg 94%
    18:00 +6°C° 0 mm 0 mps 748 mmHg 95%
    19:00 +6°C° 0 mm 0 mps 748 mmHg 95%
    20:00 +7°C° 0 mm 1 mps 748 mmHg 94%
    21:00 +7°C° 0 mm 1 mps 748 mmHg 94%
    22:00 +7°C° 0 mm 1 mps 749 mmHg 93%
    23:00 +7°C° 0 mm 1 mps 749 mmHg 93%
    Mostrar más